[[{"header":{"parameterUnit":"m.s-1","parameterCategory":1,"la1":30.2991,"la2":30.254,"lo1":-89.0895,"lo2":-89.0444,"dy":0.0017,"dx":0.0017,"nx":28,"ny":28,"refTime":"2024-09-26T09:00:00:Z","depth":0,"parameterNumber":2,"parameterNumberName":"U-component_of_WINDS"},"data":[0,0,0,0,0,0,0,0,0,0,0,0,0,0,0,0,0,0,0,0,0,0,0,0,0,0,0,0,0,0,0,0,0,0,0,0,0,0,0,0,0,0,0,0,0,0,0,0,0,0,0,0,0,0,0,0,0,0,1.9394,1.9394,0,1.9347,1.9347,1.9346,1.9299,1.9298,1.9298,1.9297,1.9247,1.9247,1.9246,0,0,0,0,0,0,0,0,0,0,0,0,0,1.9442,1.9441,1.9394,1.9394,1.9393,1.9348,1.9347,1.9346,1.9299,1.9298,1.9298,1.9297,1.9248,1.9247,1.9246,0,0,0,0,0,0,0,0,0,0,0,0,0,1.9411,1.9441,1.9394,1.9364,1.9361,1.9348,1.9347,1.9346,1.9299,1.9298,1.9297,1.9297,1.9248,1.9247,1.9246,1.9258,0,0,1.9242,1.9242,0,0,0,0,0,0,0,0,1.9413,1.9409,1.9369,1.9366,1.9363,1.9328,1.9345,1.9316,1.93,1.9323,1.9297,1.9296,1.9275,1.9271,1.9265,1.9256,1.9253,1.9242,1.9242,1.9241,1.9241,0,0,0,0,0,0,0,1.9415,1.9411,1.9376,1.9369,1.9365,1.9353,1.9347,1.934,1.9305,1.9321,1.9317,1.9312,1.9273,1.9266,1.9263,1.9253,1.9242,1.9241,1.9241,1.924,1.9252,1.9253,0,0,0,0,0,0,1.9422,1.9413,1.9377,1.9374,1.9386,1.9353,1.9346,1.934,1.9305,1.9298,1.9313,1.931,1.9268,1.9265,1.9261,1.9273,1.9241,1.924,1.9239,1.9251,1.9252,1.9253,0,0,0,0,0,0,1.9423,1.9419,1.9379,1.9393,1.9387,1.9353,1.9346,1.934,1.9333,1.9299,1.9292,1.9312,1.9267,1.9263,1.9259,1.9271,1.924,1.9239,1.925,1.9251,1.9253,1.9298,0,0,0,0,0,0,1.9425,1.942,1.9424,1.9393,1.9386,1.9378,1.9347,1.934,1.9331,1.9327,1.9297,1.9291,1.9266,1.9261,1.9258,1.9269,1.9238,1.9249,1.9251,1.9252,1.9295,1.93,1.9305,0,0,0,0,0,1.9427,1.9438,1.9425,1.9421,1.9391,1.9379,1.9375,1.9347,1.9332,1.9336,1.9315,1.9292,1.9271,1.9261,1.9258,1.9268,1.9248,1.925,1.9252,1.9293,1.9299,1.9305,0,0,0,0,0,0,1.947,1.9433,1.9418,1.942,1.9403,1.9371,1.9375,1.9355,1.9341,1.9338,1.9304,1.9297,1.9298,1.9283,1.9273,1.9278,1.9256,1.9258,1.9288,1.9294,1.9299,1.9302,1.9237,0,0,0,0,0,1.948,1.9474,1.9442,1.9447,1.9439,1.9409,1.9403,1.9383,1.9364,1.9356,1.9334,1.9316,1.9306,1.9299,1.9287,1.9293,1.9286,1.9299,1.9304,1.9308,1.9309,1.9312,1.9317,1.926,1.926,1.926,0,0,1.95,1.9479,1.9477,1.9455,1.944,1.9434,1.9403,1.9398,1.9393,1.9355,1.9351,1.9335,1.9312,1.9314,1.9313,1.9301,1.9324,1.9311,1.9315,1.9313,1.9314,1.932,1.9325,1.9262,1.9262,1.9261,0,0,1.9534,1.9518,1.952,1.9506,1.9483,1.9463,1.9464,1.9436,1.9424,1.9419,1.9391,1.9385,1.9367,1.9352,1.9343,1.9373,1.9351,1.9371,1.9397,1.9399,1.9404,1.9407,1.9418,1.9422,1.9372,1.9372,1.9372,0,1.9561,1.9552,1.9524,1.9521,1.9512,1.9479,1.9481,1.9468,1.9443,1.9437,1.9425,1.9403,1.9385,1.9383,1.9391,1.9384,1.9384,1.9373,1.9406,1.9409,1.9412,1.9422,1.9426,1.9375,1.9374,1.9374,1.9374,0,1.9587,1.9581,1.9585,1.9563,1.9555,1.9554,1.9526,1.9521,1.9503,1.9485,1.9481,1.9459,1.9443,1.9441,1.9423,1.9437,1.943,1.9412,1.9388,1.942,1.9429,1.9432,1.9378,1.9377,1.9377,1.9376,0,0,1.9644,1.9608,1.961,1.96,1.9574,1.9568,1.9567,1.9552,1.9548,1.9533,1.953,1.9517,1.9501,1.949,1.947,1.9473,1.9499,1.9454,1.9453,1.9463,1.9513,1.9526,1.953,1.9485,1.9485,1.9486,1.9514,0,1.9672,1.9668,1.9644,1.9646,1.9641,1.961,1.9609,1.9593,1.9576,1.9569,1.955,1.9542,1.9521,1.9514,1.9515,1.9495,1.9508,1.9493,1.9482,1.9482,1.9487,1.9535,1.9548,1.9576,1.9518,1.9518,1.9519,0,1.9704,1.9692,1.9694,1.967,1.9666,1.9666,1.9651,1.9644,1.9626,1.9613,1.9603,1.9581,1.9578,1.9557,1.9552,1.9543,1.9537,1.9527,1.9527,1.9524,1.9501,1.9532,1.9584,1.9588,1.9524,1.9523,1.9523,0,1.9746,1.973,1.9729,1.9721,1.9693,1.9693,1.9681,1.9662,1.9655,1.9642,1.9637,1.9623,1.9616,1.9606,1.9581,1.9569,1.958,1.9557,1.9569,1.957,1.9571,1.9571,1.9622,1.957,1.9569,1.9569,1.9569,0,1.9779,1.9782,1.9747,1.9747,1.9749,1.9722,1.9725,1.971,1.9693,1.9689,1.9663,1.9659,1.9628,1.9621,1.9602,1.9601,1.9598,1.9588,1.9582,1.9589,1.9591,1.9584,1.9581,1.957,1.957,1.957,1.957,0,1.9825,1.9802,1.9799,1.9773,1.9767,1.9769,1.9747,1.9745,1.9728,1.9723,1.9721,1.9693,1.9684,1.9659,1.9643,1.9631,1.9635,1.9626,1.9641,1.9638,1.9651,1.965,1.9699,1.9704,1.9649,1.965,1.965,0,1.9847,1.9849,1.9823,1.9819,1.9808,1.9802,1.9795,1.9769,1.9763,1.9743,1.9744,1.9733,1.9723,1.971,1.9688,1.9677,1.9666,1.9684,1.9664,1.9672,1.9666,1.9666,1.9666,1.9688,1.9689,1.969,1.969,0,1.9889,1.9878,1.987,1.9858,1.9851,1.984,1.9827,1.9826,1.9796,1.9791,1.9782,1.9774,1.9759,1.9748,1.9734,1.9721,1.9701,1.9697,1.9699,1.9706,1.9715,1.971,1.9653,1.9695,1.9695,1.9695,1.9694,1.9694,1.9923,1.9923,1.9906,1.9897,1.9886,1.9875,1.9873,1.9856,1.9848,1.9834,1.9819,1.9812,1.9795,1.9773,1.9762,1.9756,1.9745,1.9748,1.9749,1.975,1.9753,1.9717,1.9753,1.9753,1.9753,1.9753,1.9753,0,1.9963,1.9951,1.9944,1.9928,1.9922,1.9905,1.9891,1.9886,1.9881,1.9867,1.9858,1.9848,1.9838,1.9817,1.9805,1.9805,1.9795,1.9802,1.9801,1.9799,1.9764,1.9763,1.981,1.981,1.981,1.981,1.981,1.981,1.9983,1.9983,1.997,1.9964,1.9952,1.9945,1.9939,1.9929,1.9918,1.9908,1.99,1.9887,1.987,1.9857,1.9848,1.9842,1.9838,1.9849,1.984,1.9807,1.9801,1.9796,1.9795,1.9848,1.9848,1.9875,1.9875,1.9875]},{"header":{"parameterUnit":"m.s-1","parameterCategory":1,"la1":30.2991,"la2":30.254,"lo1":-89.0895,"lo2":-89.0444,"dy":0.0017,"dx":0.0017,"nx":28,"ny":28,"refTime":"2024-09-26T09:00:00:Z","depth":0,"parameterNumber":3,"parameterNumberName":"V-component_of_WINDS"},"data":[0,0,0,0,0,0,0,0,0,0,0,0,0,0,0,0,0,0,0,0,0,0,0,0,0,0,0,0,0,0,0,0,0,0,0,0,0,0,0,0,0,0,0,0,0,0,0,0,0,0,0,0,0,0,0,0,0,0,-8.5399,-8.5401,0,-8.559,-8.5592,-8.5594,-8.551,-8.5506,-8.5501,-8.5496,-8.5687,-8.5696,-8.5705,0,0,0,0,0,0,0,0,0,0,0,0,0,-8.4957,-8.4966,-8.5399,-8.5401,-8.5403,-8.5589,-8.5592,-8.5595,-8.5511,-8.5505,-8.55,-8.5494,-8.5683,-8.5695,-8.5706,0,0,0,0,0,0,0,0,0,0,0,0,0,-8.5149,-8.4969,-8.5398,-8.5384,-8.5385,-8.5589,-8.5592,-8.5595,-8.5512,-8.5505,-8.5498,-8.5492,-8.568,-8.5693,-8.5707,-8.5935,0,0,-8.5751,-8.5757,0,0,0,0,0,0,0,0,-8.5138,-8.5165,-8.5384,-8.5386,-8.5387,-8.5519,-8.5506,-8.5709,-8.5514,-8.5464,-8.5496,-8.5488,-8.5636,-8.5653,-8.5704,-8.5944,-8.5952,-8.5752,-8.576,-8.5766,-8.577,0,0,0,0,0,0,0,-8.5125,-8.5156,-8.5474,-8.5387,-8.5389,-8.5367,-8.5387,-8.5544,-8.5587,-8.5468,-8.5462,-8.5486,-8.5635,-8.5691,-8.5708,-8.5954,-8.5751,-8.5764,-8.5773,-8.5778,-8.6391,-8.6399,0,0,0,0,0,0,-8.5112,-8.5146,-8.5468,-8.548,-8.5243,-8.5381,-8.5403,-8.5484,-8.5585,-8.5594,-8.5492,-8.5481,-8.567,-8.5692,-8.5715,-8.5989,-8.5766,-8.578,-8.5788,-8.6384,-8.6393,-8.6402,0,0,0,0,0,0,-8.5103,-8.5142,-8.546,-8.5312,-8.535,-8.5396,-8.5488,-8.5491,-8.5547,-8.5603,-8.561,-8.5541,-8.5666,-8.5695,-8.5881,-8.5995,-8.5786,-8.5799,-8.6375,-8.6387,-8.6397,-8.6539,0,0,0,0,0,0,-8.5091,-8.5139,-8.5227,-8.5314,-8.5359,-8.5626,-8.5494,-8.55,-8.5572,-8.556,-8.5651,-8.5659,-8.5662,-8.5861,-8.5896,-8.601,-8.581,-8.6365,-8.638,-8.6394,-8.6525,-8.6554,-8.658,0,0,0,0,0,-8.5075,-8.5257,-8.5232,-8.5271,-8.547,-8.5632,-8.5658,-8.5659,-8.5581,-8.5669,-8.5706,-8.5657,-8.5976,-8.5881,-8.5919,-8.604,-8.6357,-8.6376,-8.6393,-8.6512,-8.6549,-8.6579,0,0,0,0,0,0,-8.518,-8.5268,-8.5241,-8.5457,-8.5538,-8.5618,-8.5729,-8.5697,-8.58,-8.5785,-8.578,-8.5801,-8.5995,-8.6035,-8.5927,-8.6266,-8.6155,-8.6181,-8.6233,-8.6268,-8.6295,-8.6281,-8.5822,0,0,0,0,0,-8.5228,-8.5355,-8.5424,-8.5608,-8.5651,-8.5683,-8.5754,-8.5749,-8.5831,-8.5865,-8.5915,-8.5996,-8.6115,-8.6193,-8.6305,-8.653,-8.6549,-8.6631,-8.6659,-8.6681,-8.6704,-8.6828,-8.6866,-8.646,-8.6459,-8.6459,0,0,-8.5329,-8.5393,-8.5473,-8.5631,-8.5693,-8.5823,-8.5713,-8.5854,-8.5951,-8.5885,-8.6066,-8.6106,-8.6196,-8.6403,-8.6497,-8.6443,-8.6821,-8.6704,-8.6721,-8.6732,-8.685,-8.6888,-8.6922,-8.6471,-8.6469,-8.6467,0,0,-8.558,-8.5641,-8.5802,-8.5867,-8.5964,-8.5984,-8.6023,-8.6109,-8.6134,-8.6315,-8.627,-8.6383,-8.6587,-8.6655,-8.6715,-8.6994,-8.6953,-8.703,-8.7174,-8.7295,-8.7327,-8.7355,-8.7456,-8.7492,-8.7052,-8.7053,-8.7053,0,-8.5692,-8.5888,-8.5888,-8.6035,-8.6106,-8.6055,-8.6218,-8.6281,-8.6409,-8.6458,-8.6396,-8.6654,-8.671,-8.6934,-8.7002,-8.7052,-8.7097,-8.702,-8.7323,-8.7351,-8.7377,-8.7474,-8.7512,-8.7062,-8.7061,-8.706,-8.7059,0,-8.6023,-8.616,-8.6278,-8.6406,-8.649,-8.6644,-8.6666,-8.6751,-8.6738,-8.6766,-8.6951,-8.7018,-8.7144,-8.7196,-8.7184,-8.7419,-8.7383,-8.7322,-8.7211,-8.7425,-8.7516,-8.7552,-8.7075,-8.7071,-8.7069,-8.7066,0,0,-8.6344,-8.6472,-8.6515,-8.6574,-8.6677,-8.6782,-8.6934,-8.706,-8.7134,-8.7223,-8.735,-8.7526,-8.7471,-8.754,-8.7535,-8.764,-8.7859,-8.7567,-8.7569,-8.762,-8.8124,-8.817,-8.8213,-8.7832,-8.7839,-8.7845,-8.8117,0,-8.6604,-8.6873,-8.6878,-8.7124,-8.7251,-8.7205,-8.7337,-8.7415,-8.7445,-8.7555,-8.7586,-8.7712,-8.7629,-8.7671,-8.7774,-8.7811,-8.796,-8.7791,-8.795,-8.7956,-8.7931,-8.826,-8.8309,-8.8563,-8.8152,-8.8158,-8.8162,0,-8.6943,-8.7048,-8.7308,-8.7395,-8.7448,-8.7568,-8.7684,-8.7791,-8.7878,-8.7892,-8.7971,-8.795,-8.8104,-8.7987,-8.82,-8.8085,-8.815,-8.8178,-8.8188,-8.8204,-8.8073,-8.8286,-8.8644,-8.8683,-8.8218,-8.8213,-8.8209,0,-8.7155,-8.7359,-8.7542,-8.7593,-8.7699,-8.7784,-8.7832,-8.7912,-8.7988,-8.8089,-8.8138,-8.8255,-8.8319,-8.841,-8.8421,-8.8335,-8.8635,-8.8519,-8.8651,-8.8652,-8.8718,-8.8714,-8.9092,-8.8757,-8.8757,-8.8756,-8.8755,0,-8.7445,-8.7606,-8.7638,-8.7751,-8.793,-8.7933,-8.811,-8.8151,-8.8223,-8.8342,-8.8308,-8.842,-8.8427,-8.8542,-8.8551,-8.8727,-8.8755,-8.8771,-8.8772,-8.8775,-8.8774,-8.8819,-8.8802,-8.8766,-8.8764,-8.8762,-8.876,0,-8.7712,-8.774,-8.7936,-8.8021,-8.8047,-8.8175,-8.8248,-8.8355,-8.8381,-8.8532,-8.8568,-8.8609,-8.8743,-8.8763,-8.8919,-8.8925,-8.9136,-8.9118,-8.9108,-8.9106,-8.9238,-8.9226,-8.966,-8.9718,-8.9344,-8.9347,-8.935,0,-8.7896,-8.802,-8.812,-8.8198,-8.8251,-8.8378,-8.8456,-8.8464,-8.8546,-8.8656,-8.875,-8.8881,-8.8986,-8.9201,-8.9244,-8.9363,-8.9349,-8.9492,-8.9366,-8.9366,-8.9353,-8.9346,-8.9359,-8.9517,-8.9521,-8.9525,-8.9527,0,-8.8222,-8.823,-8.8345,-8.8467,-8.8562,-8.8657,-8.8746,-8.8812,-8.8831,-8.8926,-8.9064,-8.9146,-8.9306,-8.9437,-8.9555,-8.9602,-8.9569,-8.9567,-8.9604,-8.961,-8.96,-8.9609,-8.9177,-8.9557,-8.9554,-8.9552,-8.955,-8.9549,-8.8454,-8.8563,-8.8651,-8.8781,-8.885,-8.8935,-8.9041,-8.9082,-8.9198,-8.9331,-8.9328,-8.948,-8.9564,-8.972,-8.9776,-8.9894,-8.9847,-8.9901,-8.9914,-8.9928,-8.9942,-8.958,-8.9915,-8.9914,-8.9914,-8.9913,-8.9912,0,-8.878,-8.8835,-8.8954,-8.9083,-8.9185,-8.9147,-8.9244,-8.9332,-8.9467,-8.9549,-8.9655,-8.9814,-8.994,-8.9994,-9.0119,-9.0203,-9.0191,-9.0235,-9.023,-9.0242,-8.9976,-8.9932,-9.0243,-9.0243,-9.0243,-9.0243,-9.0243,-9.0243,-8.8961,-8.9144,-8.9163,-8.9379,-8.9432,-8.9583,-8.9642,-8.9721,-8.9787,-8.9967,-9.0073,-9.0108,-9.018,-9.0309,-9.0424,-9.0436,-9.0484,-9.0537,-9.0542,-9.0293,-9.026,-9.0228,-9.0187,-9.0547,-9.0547,-9.0798,-9.0801,-9.0803]}]]